Weather History for Punta Gorda, FL

Change the Weather History Date:

Thursday, May 16, 2013

  Actual Average Record
Temperature  
Mean Temperature 74 °F -  
Max Temperature 89 °F 86 °F 93 °F (2000)
Min Temperature 59 °F 63 °F 57 °F (2001)
Cooling Degree Days 8    
Growing Degree Days 24 (Base 50)    
Moisture  
Dew Point 58 °F    
Average Humidity 61    
Maximum Humidity 100    
Minimum Humidity 30    
Precipitation  
Precipitation 0.00 in - - ()
Sea Level Pressure  
Sea Level Pressure 30.09 in    
Wind  
Wind Speed 5 mph (ESE)    
Max Wind Speed 13 mph    
Max Gust Speed -    
Visibility 10 miles    
Events      
Averages and records for this station are not official NWS values.
T = Trace of Precipitation, MM = Missing Value Source: NWS Daily Summary

Daily Weather History Graph

Daily Weather History Graph

Search for Another Location

Airport:

Trip Planner

Search our weather history database for the weather conditions in past years. The results will help you decide how hot, cold, wet, or windy it might be!

Date:

Astronomy

May. 16, 2013 Rise Set
Actual Time 6:39 AM EDT 8:09 PM EDT
Civil Twilight 6:14 AM EDT 8:34 PM EDT
Nautical Twilight 5:44 AM EDT 9:05 PM EDT
Astronomical Twilight 5:12 AM EDT 9:36 PM EDT
Moon 12:02 PM EDT (5/16) 12:37 AM EDT (5/16)
Length of Visible Light 14h 20m
Length of Day
13h 29m
Waxing Crescent, 35% of the Moon is Illuminated
May 16
Waxing Crescent
May 18
First Quarter
May 25
Full
May 31
Last Quarter
Jun 8
New

Hourly Weather History & Observations

Time (EDT) Temp. Heat Index Dew Point Humidity Pressure Visibility Wind Dir Wind Speed Gust Speed Precip Events Conditions
12:53 AM 68.0 °F - 61.0 °F 78% 30.12 in 10.0 mi ESE 4.6 mph - N/A   Clear
1:53 AM 66.9 °F - 62.1 °F 84% 30.10 in 10.0 mi ESE 5.8 mph - N/A   Clear
2:53 AM 64.0 °F - 61.0 °F 90% 30.10 in 10.0 mi Calm Calm - N/A   Clear
3:53 AM 61.0 °F - 60.1 °F 97% 30.09 in 10.0 mi East 3.5 mph - N/A   Clear
4:53 AM 61.0 °F - 60.1 °F 97% 30.08 in 10.0 mi East 3.5 mph - N/A   Clear
5:53 AM 59.0 °F - 59.0 °F 100% 30.09 in 6.0 mi Calm Calm - N/A   Clear
6:53 AM 61.0 °F - 59.0 °F 93% 30.09 in 10.0 mi ESE 4.6 mph - N/A   Clear
7:53 AM 66.9 °F - 61.0 °F 81% 30.12 in 10.0 mi ESE 5.8 mph - N/A   Clear
8:53 AM 73.9 °F - 59.0 °F 59% 30.14 in 10.0 mi SE 9.2 mph - N/A   Clear
9:53 AM 78.1 °F - 57.9 °F 50% 30.15 in 10.0 mi SSE 12.7 mph - N/A   Clear
10:53 AM 80.1 °F 80.4 °F 57.0 °F 45% 30.15 in 10.0 mi SSE 8.1 mph - N/A   Clear
11:53 AM 84.0 °F 82.6 °F 54.0 °F 35% 30.14 in 10.0 mi ESE 11.5 mph - N/A   Clear
12:53 PM 84.0 °F 82.6 °F 54.0 °F 35% 30.13 in 10.0 mi Variable 5.8 mph - N/A   Clear
1:53 PM 86.0 °F 84.0 °F 53.1 °F 32% 30.10 in 9.0 mi Variable 4.6 mph - N/A   Clear
2:53 PM 87.1 °F - 52.0 °F 30% 30.08 in 10.0 mi Variable 4.6 mph - N/A   Clear
3:53 PM 88.0 °F 85.7 °F 53.1 °F 30% 30.06 in 10.0 mi Variable 3.5 mph - N/A   Clear
4:53 PM 87.1 °F 85.1 °F 54.0 °F 32% 30.04 in 10.0 mi Variable 6.9 mph - N/A   Partly Cloudy
6:53 PM 84.9 °F 83.3 °F 54.0 °F 34% 30.03 in 10.0 mi ESE 5.8 mph - N/A   Clear
7:53 PM 81.0 °F 81.1 °F 57.9 °F 45% 30.03 in 10.0 mi ESE 8.1 mph - N/A   Clear
8:53 PM 75.0 °F - 62.1 °F 64% 30.04 in 10.0 mi Calm Calm - N/A   Clear
9:53 PM 75.9 °F - 62.1 °F 62% 30.07 in 10.0 mi Calm Calm - N/A   Clear
10:53 PM 73.9 °F - 61.0 °F 64% 30.09 in 10.0 mi SE 5.8 mph - N/A   Clear
11:53 PM 73.0 °F - 62.1 °F 68% 30.10 in 10.0 mi ESE 6.9 mph - N/A   Clear